WX4TAZ Weather Reports


time (UTC)temp
C
wind
direction
speed
KPH
gust
KPH
rain 1hr
cm
rain 24hr
cm
rain mn
cm
humidity
%
barometer
mb
20260507144103 13 235 11.3 19.3 0.00 0.00 0.00 43 1011.1
20260507143602 13 239 9.7 19.3 0.00 0.00 0.00 43 1011.1
20260507143103 13 261 8.0 19.3 0.00 0.00 0.00 43 1011.1
20260507141103 12 236 9.7 16.1 0.00 0.00 0.00 44 1011.1
20260507134603 11 238 9.7 17.7 0.00 0.00 0.00 46 1011.1
20260507134104 11 248 8.0 16.1 0.00 0.00 0.00 47 1011.2
20260507133602 11 246 9.7 17.7 0.00 0.00 0.00 47 1011.2
20260507133103 11 239 11.3 19.3 0.00 0.00 0.00 49 1011.1
20260507124103 8 248 14.5 22.5 0.00 0.00 0.00 53 1011.3
20260507123602 9 250 14.5 22.5 0.00 0.00 0.00 53 1011.2
20260507122103 8 245 16.1 29.0 0.00 0.00 0.00 53 1011.2
20260507121603 8 243 17.7 29.0 0.00 0.00 0.00 54 1011.1
20260507103103 8 230 9.7 16.1 0.00 0.00 0.00 55 1011.2
20260507095602 7 226 9.7 16.1 0.00 0.00 0.00 54 1011.4
20260507091603 7 226 8.0 14.5 0.00 0.00 0.00 52 1011.6
20260507085103 7 222 9.7 16.1 0.00 0.00 0.00 49 1011.9
20260507083602 7 217 8.0 16.1 0.00 0.00 0.00 46 1012.1
20260507083103 7 215 8.0 16.1 0.00 0.00 0.00 46 1012.2
20260507080103 7 233 8.0 11.3 0.00 0.00 0.00 42 1012.5
20260507074603 8 235 8.0 11.3 0.00 0.00 0.00 40 1012.8
20260507074104 8 231 8.0 9.7 0.00 0.00 0.00 40 1012.7
20260507073602 8 225 8.0 12.9 0.00 0.00 0.00 39 1012.7
20260507073103 8 219 9.7 12.9 0.00 0.00 0.00 38 1012.8
20260507072602 8 218 8.0 12.9 0.00 0.00 0.00 37 1012.9
20260507070104 8 215 8.0 11.3 0.00 0.00 0.00 34 1013.1
20260507065103 8 210 8.0 12.9 0.00 0.00 0.00 32 1013.2
20260507063103 8 176 9.7 12.9 0.00 0.00 0.00 30 1013.3
20260507062103 8 175 9.7 12.9 0.00 0.00 0.00 30 1013.4
20260507061603 8 179 8.0 11.3 0.00 0.00 0.00 29 1013.5
20260507061103 8 172 4.8 11.3 0.00 0.00 0.00 30 1013.6
20260507060103 8 178 9.7 12.9 0.00 0.00 0.00 29 1013.7
20260507052603 8 162 3.2 4.8 0.00 0.00 0.00 30 1013.9
20260507050602 8 150 1.6 4.8 0.00 0.00 0.00 29 1014.0
20260507043602 8 183 3.2 4.8 0.00 0.00 0.00 27 1014.2
20260507040603 9 0 0.0 0.0 0.00 0.00 0.00 25 1014.3
20260507033103 10 194 1.6 3.2 0.00 0.00 0.00 24 1014.6
20260507031103 10 209 1.6 3.2 0.00 0.00 0.00 23 1014.7
20260507025602 10 0 0.0 0.0 0.00 0.00 0.00 22 1014.7
20260507024603 10 0 0.0 0.0 0.00 0.00 0.00 23 1014.7
20260507021603 10 0 0.0 0.0 0.00 0.00 0.00 20 1014.6
20260507015603 12 0 0.0 0.0 0.00 0.00 0.00 18 1014.5
20260507014602 12 0 0.0 0.0 0.00 0.00 0.00 17 1014.5
20260507013603 12 271 1.6 3.2 0.00 0.00 0.00 17 1014.4
20260507013103 12 276 1.6 3.2 0.00 0.00 0.00 17 1014.4
20260507000603 15 300 8.0 17.7 0.00 0.00 0.00 15 1014.7
20260506232603 15 303 16.1 27.4 0.00 0.00 0.00 14 1014.9
20260506230104 15 289 16.1 30.6 0.00 0.00 0.00 14 1015.1
20260506222603 15 308 12.9 22.5 0.00 0.00 0.00 14 1015.3
20260506221602 14 312 8.0 14.5 0.00 0.00 0.00 15 1015.4
20260506221103 14 300 12.9 22.5 0.00 0.00 0.00 15 1015.5
20260506220602 14 282 16.1 27.4 0.00 0.00 0.00 14 1015.5
20260506220104 14 269 19.3 32.2 0.00 0.00 0.00 14 1015.5
20260506214103 14 281 17.7 35.4 0.00 0.00 0.00 15 1015.5
20260506210103 13 301 12.9 22.5 0.00 0.00 0.00 16 1016.1
20260506205602 13 302 12.9 25.7 0.00 0.00 0.00 18 1016.2
20260506203103 13 313 17.7 32.2 0.00 0.00 0.00 16 1016.4
20260506195103 12 297 17.7 29.0 0.00 0.00 0.00 18 1016.6
20260506194603 12 299 16.1 27.4 0.00 0.00 0.00 18 1016.8
20260506192104 12 304 17.7 32.2 0.00 0.00 0.00 20 1016.8
20260506190104 12 298 11.3 22.5 0.00 0.00 0.00 20 1016.9
20260506184603 12 304 12.9 25.7 0.00 0.00 0.00 21 1017.2
20260506182603 12 308 14.5 25.7 0.00 0.00 0.00 22 1017.2
20260506171603 11 308 12.9 25.7 0.00 0.00 0.00 25 1018.0
20260506153103 10 301 11.3 19.3 0.00 0.00 0.00 29 1018.1
20260506151103 10 321 9.7 19.3 0.00 0.00 0.00 28 1018.2
20260506150603 10 322 11.3 17.7 0.00 0.00 0.00 32 1018.2
20260506145103 9 313 12.9 22.5 0.00 0.00 0.00 31 1018.2